STARLINK-6092 (56121 NORAD) Tracking and Keplerian Element Data

This shows tracking and keplerian element data for the satellite.

Feedback or suggestion? Click here.




ElementValue
Catalog56121
NameSTARLINK-6092
Epoch Orbit656
Epoch Day127.25001157
Epoch Year2023
RAAN33.7105
Inclination43.0012
Eccentricity0.0001129
Argument of Perigee255.0239
Mean Anonmoly356.6866
Mean Motion15.48954175
Decay Rate-5.635E-05
L11 56121U 23046AE 23127.25001157 -.00005635 00000+0 -95768-4 0 9995
L22 56121 43.0012 33.7105 0001129 255.0239 356.6866 15.48954175 6561



Live tracking and technical data element details for STARLINK-6092 (NORAD 56121). STARLINK-6092 can be tracked NOW for your location showing map with azimuth and elevation plus other details from your city location.







IsCatalogInMostPopularTable: catalog: 56121, numindb: 5
Update: records affected: 1



GetName: 56121 STARLINK-6092

Hit Count: updated at: Mon, 05 Jun 2023 00:22:37 GMT